Terminal Aerodrome Forecast
Issued by NWS

Home | Current Version | Previous Version | Text Only | Print | Product List | Glossary Off
Versions: 1 2 3 4 5 6 7 8 9 10 11 12 13 14 15 16 17 18 19 20 21 22 23 24 25 26 27

180
FTUS43 KLOT 231355 AAA
TAFORD
TAF AMD
KORD 231355Z 2314/2418 24011G17KT P6SM BKN015 OVC080
     FM231530 23010KT 6SM -SHRA SCT015 OVC060
     FM232100 13007KT 6SM -SHRA VCTS BKN035CB OVC050
     FM240100 06006KT P6SM VCSH SCT020 OVC030
     FM240300 05006KT 6SM BR VCSH SCT010 OVC020
     FM240500 03007KT 5SM BR SCT006 OVC010=

USA.gov is the U.S. government's official web portal to all federal, state and local government web resources and services.